STARLINK-3788, 52271

Orbit data source: Space-Track

STARLINK-3788, 52271 is a payload satellite owned by SpaceX/Seattle (US) in LEO that was launched on Thu, 21 Apr 2022 UTC via an FALCON 9 launch vehicle from the Air Force Eastern Test Range (AFETR). Payload-class satellites include a variety of spacecraft equipped with specific instruments for various scientific and technological missions. These include communications satellites like Starlink; space stations such as the ISS; scientific satellites like the Hubble; Earth observation satellites from companies like Planet Labs, Umbra, and HawkEye 360; GPS; miniature CubeSats for education and research; and military/defense satellites.

Loading next visibility...
Identifier
52271, 2022-041L
Orbit
LEO
Country
Flag of USUS
Related business
Manufacturer
SpaceX/Seattle
Mission
Operational Commercial Communications
Bus & Motor
STARLINK, Unknown motor
Mass
297 kg wet, ~275 kg dry
Launch date (UTC)
2022-04-21 (4 years ago)
Launch vehicle
FALCON 9
Launch site
Air Force Eastern Test Range (AFETR)
Object type
Payload
Rocket body
Debris
Shape & HBR
Box + 1 Pan, 10.1 m
Radar Cross Section
11.087 m², Large (>1 m²)

Expand to show TLE details & history
Last TLE update: 1 day ago

TLE from 1 day ago
0 STARLINK-3788
1 52271U 22041L   26262.65268864  .00000572  00000-0  28086-4 0  9991
2 52271  53.1613 311.5515 0001343  81.7961 278.3194 15.34386157243738
Epoch: 2026-09-19T15:39Z
TLE epoch observation values (Epoch: 2026-09-19T15:39:52.298Z)
Latitude
-0.00001°
Longitude
78.02544°
Altitude
463.513 km
Speed
7.636 km/s
True Right ascension
20h 46m 12s
True Declination
0° 00' 00"
Sunlit
Object was in full shadow at epoch
Visualization orbit readout
Latitude
Unknown
Longitude
Unknown
Altitude
Unknown
Speed
Unknown
Apparent Right ascension
Unknown
Apparent Declination
Unknown
Sunlit
N/A
Visualization observer readout
Local Sidereal Time
13:00:42
Azimuth
Unknown
Elevation
Unknown
Doppler factor
Unknown
Orbital elements
Apogee altitude
463.92 km
Perigee altitude
462.082 km
Semi-major axis
6,841.138 km
Eccentricity
0.00013
Inclination
53.1613°
RAAN
311.5515°
Arg. of periapsis
81.7961°
True anomaly
278.30417°
Mean anomaly
278.3194°
Eccentric anomaly
278.31179°
Mean motion
3.83575 °/min
Orbital period
93.85 mins
BSTAR
0.000028086
Loading maneuver chart data...
Computing Atmospheric mass density...
Loading historical data...
Loading historical data...
Loading historical data...
Loading historical data...
Loading historical data...
Loading historical data...
Loading historical data...

Documentation

Showing up to 5 results
|